sat.trackr.live / text

‹ back to catalog

STARLINK-3520

NORAD 51741 · 2022-016AD

PAYLOAD ACTIVE UNKNOWN

§ Identity

Operator
Country
US
Launch date
2022-02-21
Launch site
AFETR
Launch vehicle
Mass (kg)
RCS (m²)

Purposes: comms

External: N2YO · Heavens-Above · Gunter

§ Orbital elements

Epoch: 2026-05-24T22:48:52.024032Z

Period
95.44 min
Inclination
53.2146°
Eccentricity
0.0001176
Mean motion
15.08844106 rev/d
Perigee alt
538.9 km
Apogee alt
540.5 km
Semi-major
6,917.9 km
B*
-1.0998e-6
RAAN
336.7825°
Arg perigee
81.2738°
Mean anomaly
278.8387°
Rev number
23,507

§ Raw data

STARLINK-35201 51741U 22016AD  26144.95060213 -.00000305  00000+0 -10998-5 0  99932 51741  53.2146 336.7825 0001176  81.2738 278.8387 15.08844106235076

JSON: /api/v1/satellites/51741 · /tle

For live sub-satellite position, see the globe view (requires WebGL).

§ Visibility from observer

Set your observer location to see the next 7 days of passes ≥ 10°. The values pass through the URL so the page stays shareable.

No JS? Fill the form by hand. The geolocation button needs JavaScript.